Погода в Анне

Погода в Анне : погода сейчас, прогноз погоды и архив. Всё, что Вы хотите узнать о погоде в Анне!

Хотите узнать прогноз погоды в Анне? Тогда Вам сюда: Погода в Анне

Поиск расширенной информации на нашем сайте:

Другие новости

Новости СМИ2

Главная страница сайта

Новости сайта

02.10.2013

Напоминаем, что на нашем новом сайте вы можете получить высокодетализированные прогнозы погоды по пунктам России, СНГ и мира (включающие важные для авиации метеовеличины, такие как направление и скорость ветра, видимость, явления погоды, количество и форма облачности, нижняя и верхняя граница облачности), а также ознакомиться с разнообразными материалами по авиационной метеорологии и подборкой полезных ссылок на эту тему.

Сайт Метеоцентр.Азия посвящён разработке технологий оптимизации авиаметеорологического обслуживания, включая проектирование и перспективное создание нескольких автоматизированных авиаметеорологических систем:
- система выпуска высокодетальных прогностических карт явлений погоды для нижнего воздушного пространства по России и ближнему зарубежью;
- система верификации прогнозов TAF (выпускаемых синоптиками официальных АМСГ РФ и ближнего зарубежья) и AUTOTAF (выпускаемых сайтом Метеоцентр.Азия) - выявление ошибок, онлайн-сопоставление с фактической погодой METAR, автоматическое внесение коррективов в прогнозы при резком отклонении фактической погоды от прогноза, подсчёт оправдываемости прогнозов по элементам и в целом;
- система обработки, анализа и отображения авиаметеорологической информации для применения провайдерами метеорологической информации.

Рекомендуем: Здесь яблочный уксус для похудения купить можно дешевле, чем в Китае!

Погода в Анне - сегодня

Время (UTC), дата Ветер
(°,м/с) 
Видим.   Явления Облачность Т
(°С)
Тd
(°С)
f(%) Тe
(°С)
Pmin
(гПа)
dP
(гПа)
Po
(мм)
O2
(г/м3)
Тmin Tmax R s Состояние
почвы
06 17.02.17 210 (ЮЗ) 10 км    8/0 средняя 
[Ac trans]
-11.7 -13.7 85 -14  1028.5  -1.5  756  319           
09 17.02.17 200 (Ю) 10 км    9/3 600 м средняя 
[Sc|Ac trans]
-7.7 -13.2 65 -11  1026.6  -1.5  755  314           
12 17.02.17 220 (ЮЗ) 5{10}  10 км    9/0 средняя, верхняя 
[Ac trans|Ci sp]
-5 -12.9 54 -9  1023.9  -2.4  753  310           
15 17.02.17 210 (ЮЗ) 5{10}  10 км  позёмок  10/10 600 м 
[Sc]
-5.9 -9.4 76 -10  1021.5  -2.5  751  310    -5       
18 17.02.17 200 (Ю) 5-10{12}  10 км  позёмок  10/10 600 м 
[Sc]
-6.4 -8.8 83 -10  1020.5  -0.9  750  311           
21 17.02.17 200 (Ю) 4{11}  10 км    10/10 300 м 
[St]
-5.6 -7.8 84 -9  1018.9  -1.6  749  309           
00 18.02.17 230 (ЮЗ) 10 км    10/10 300 м 
[St]
-4.5 -6.8 84 -8  1017.6  -1.2  748  307           
03 18.02.17 230 (ЮЗ) 5{10}  10 км    10/10 300 м 
[St]
-3.4 -5.2 87 -7  1016.2  -1.2  747  306  -6.4      52  равномерный
сухой снег
100% 
06 18.02.17 240 (ЮЗ) 10 км    10/10 300 м 
[St]
-1.6 -3.3 88 -5  1015.9  -0.2  747  303           
09 18.02.17 260 (З) 10 км    10/0 средняя 
[As op]
+1.1 -1.5 83 -2  1016.2  0.4  748  300           
12 18.02.17 250 (З) 5{10}  10 км    10/0 средняя 
[As op]
+1.6 -1.2 82 -1  1015.4  -0.7  747  299           
15 18.02.17 240 (ЮЗ) 10 км    10/10 300 м 
[St]
+1.3 -1.3 83 -1  1016.1  0.6  748  300    +1.6       
18 18.02.17 250 (З) 10 км    10/10 300 м 
[St]
+1.1 -1.2 85 -1  1016.3  0.2  748  300           
21 18.02.17 250 (З) 10 км    10/10 300 м 
[St]
+1.3 -1.3 83 -1  1016.5  0.2  748  300           
00 19.02.17 250 (З) 10 км    10/10 300 м 
[St]
+1.2 -1.1 85 -2  1017  0.5  748  300           
03 19.02.17 250 (З) 5{10}  10 км    10/10 300 м 
[St]
+1.4 -1.1 83 -1  1018.3  1.3  749  300  +1      45  равномерный
мокрый или
старый снег
100% 
06 19.02.17 280 (З) 6{10}  10 км    10/10 300 м 
[St]
+1.2 -0.8 86 -2  1019.7  1.4  750  301           
09 19.02.17 250 (З) 10 км    10/10 300 м 
[St]
+1.6 -0.9 83 1020.7  751  301           
12 19.02.17 240 (ЮЗ) 10 км    10/10 300 м 
[St]
+1.4 -1.1 83 -1  1020.3  -0.4  751  301           
15 19.02.17 260 (З) 5{11}  10 км    10/10 300 м 
[St]
+1.2 -1.7 81 -2  1020.2  -0.1  751  301    +1.7       
18 19.02.17 260 (З) 7-10{12}  10 км    10/10 300 м 
[St]
+1.3 -2.2 77 -2  1019.9  -0.3  750  301           
21 19.02.17 230 (ЮЗ) 5{11}  10 км    ясно 
+0.8 -2.1 81 -2  1019.3  -0.6  750  302           
00 20.02.17 250 (З) 7-11{11}  10 км    8/8 600 м 
[Sc]
+1.6 -2.2 76 -2  1018.1  -1.2  749  300           
03 20.02.17 250 (З) 5{13}  10 км    8/8 600 м 
[Sc]
+1 -2.5 77 -2  1017.5  -0.6  749  301  -0.1      42  равномерный
мокрый или
старый снег
100% 
06 20.02.17 250 (З) 6-10{12}  10 км    9/9 600 м 
[Sc]
+0 -2.6 83 -3  1016.9  -0.7  748  302  +0         
Время (UTC), дата Ветер
(°,м/с) 
Видим.   Явления Облачность Т
(°С)
Тd
(°С)
f(%) Тe
(°С)
Pmin
(гПа)
dP
(гПа)
Po
(мм)
O2
(г/м3)
Тmin Tmax R s Состояние
почвы

Для получения пояснительной информации подведите курсор к названию столбца.

ПОГОДА в Анне - архив

Всё, что Вы хотите узнать о погоде в Анне - удобно и подробно!

Выберите нужную дату (начиная с 1 января 2015* года) и нажмите кнопку "Найти".
Будут отображены архивные сводки погоды по пункту Анна, начиная с указанной даты.


Отображать данные в формате CSV (для использования в таблицах Excel)


Внимание! Наш архив погоды предназначен исключительно для личного некоммерческого использования в познавательных целях. Если Вам необходимы официальные справки о состоянии погоды (для производственных, юридических, коммерческих и т.п. целей), обращайтесь в органы Росгидромета.

*Примечание: данная дата относится к архиву по метеостанциям СССР (Россия, СНГ, Балтия).
Архив по метеостанциям Зарубежной Европы и Азии (кроме Китая) хранится 10 дней, по другим регионам земного шара (Китай, Африка, Америка, Австралия, Океания) - 1 день.

Анна - район местоположения метеостанции


Название, широта, долгота, высота метеостанции:
Анна 51.5°ш. 40.4°д. 154 м над ур. моря [Российская Федерация]

Дополнительная информация

В oтличие oт бoльшинства пoгoдных сайтoв мы публикуем пoдрoбную метеoинфoрмацию в детальнoм прoфессиoнальнoм фoрмате.

Характеристики температуры и влажнoсти вoздуха измеряются на высoте 2 м в тени вдали oт зданий и деревьев.
Скoрoсть ветра измеряется на высoте 10 м (на урoвне рoста челoвека скoрoсть ветра ниже в 1.5-2 раза). Если метеoстанция нахoдится в гoрoде или в лесу, тo скoрoсть ветра занижена на 2-4 м/с пo сравнению с oткрытым местoм. Скoрoсть ветра над акватoриями крупных рек и oзёр, а также на вершинах хoлмoв на 2-5 м/с выше, чем в oбычных услoвиях.
Атмoсфернoе давление в разных тoчках местнoсти мoжет значительнo oтличаться oт давления на метеoстанции, в зависимoсти oт услoвий рельефа (при пoдъёме на 10 м давление пoнижается примернo на 1 мм рт.ст.).